Terminal Aerodrome Forecast
Issued by NWS

Home | Current Version | Previous Version | Text Only | Print | Product List | Glossary Off
Versions: 1 2 3 4 5 6 7 8 9 10 11 12 13 14 15 16 17 18 19 20 21 22 23 24 25 26 27 28 29 30 31 32 33

000
FTUS43 KLOT 261900 AAA
TAFORD
TAF AMD
KORD 261955Z 2620/2724 09005KT P6SM FEW020 SCT250
     FM270000 06006KT P6SM FEW150 BKN250
     FM270700 03006KT P6SM BKN070
     FM271500 05010KT P6SM BKN080=

USA.gov is the U.S. government's official web portal to all federal, state and local government web resources and services.